Dewpoint
61 60 59 58 55 54 53 52 53 52 52 52 53 53 54 53 50 37 35 44 44 59 54 38 38 35 34 33 32 29 24 20 17 14 17 15 14 16 17 19 23 37 45 61 64
61 60 59 57 54 53 52 52 52 52 52 52 53 53 53 53 38 38 48 59 58 59 35 32 31 31 30 29 29 28 25 22 20 18 22 19 17 16 17 20 21 29 51 62 63
61 59 58 56 53 52 51 52 52 52 52 52 53 53 53 49 39 35 53 55 56 49 31 30 29 29 28 28 26 28 27 26 24 24 25 25 23 19 18 17 20 20 44 61 61
60 59 57 55 53 51 51 52 52 50 51 52 51 53 53 42 33 35 52 52 55 35 28 27 30 30 28 27 27 24 27 27 26 26 25 25 26 24 24 22 23 23 35 56 58
59 57 56 54 52 50 51 51 51 51 51 51 51 52 39 36 36 34 53 48 30 28 26 27 26 26 26 30 29 27 26 25 25 25 23 25 25 26 25 26 27 27 26 27 41
57 56 55 53 52 50 51 51 51 51 52 51 52 52 36 33 34 31 29 28 28 28 28 28 26 27 26 26 29 30 28 27 27 26 26 24 24 24 25 26 26 28 28 28 28
56 55 53 53 52 50 50 51 51 51 52 51 52 43 32 32 34 33 29 28 27 26 25 25 26 26 27 26 28 30 29 29 29 28 27 26 24 23 25 26 26 26 26 27 28
56 54 53 52 52 51 50 50 50 51 51 51 51 39 32 34 30 26 27 26 30 31 30 31 30 29 28 28 26 26 28 27 27 26 25 25 22 23 24 22 23 25 26 28 29
55 53 52 51 51 50 50 50 51 51 51 50 43 37 34 36 24 25 29 28 30 31 31 29 28 29 28 26 25 24 23 25 25 24 23 24 23 23 23 25 24 25 27 27 28
55 53 52 51 51 50 49 50 49 48 47 42 37 34 35 30 25 29 31 31 30 31 30 31 28 27 26 24 21 21 21 22 22 22 23 22 23 24 24 23 26 27 26 27 27
54 53 51 51 51 50 46 40 41 43 40 38 36 32 28 27 27 27 28 29 32 31 28 28 27 25 24 24 23 22 21 20 21 20 21 22 21 20 22 23 25 25 26 26 28
53 52 51 50 50 49 45 38 40 40 34 39 38 35 33 30 27 27 28 27 28 27 27 25 24 25 25 25 24 24 22 22 23 23 24 22 22 23 24 25 26 26 26 27 29
52 51 51 50 48 46 42 35 40 39 31 34 34 32 30 28 26 25 25 24 24 23 23 24 23 23 22 22 22 22 23 23 22 23 24 24 22 23 24 25 25 26 25 26 28
51 51 51 49 43 45 44 41 41 46 37 35 28 25 26 25 24 24 22 22 20 20 19 19 20 20 20 19 21 21 21 21 20 19 18 22 18 21 22 22 22 25 28 29 35
51 50 50 48 48 46 46 46 48 48 30 30 23 22 22 23 21 17 25 25 22 20 21 18 16 17 17 17 17 17 19 18 20 20 21 20 19 19 21 19 20 22 27 36 37
51 50 49 48 47 48 48 48 49 36 29 21 16 16 16 20 22 20 21 24 24 21 21 20 20 19 18 18 17 17 16 16 17 18 16 18 18 16 17 17 18 21 32 35 36
50 50 48 50 46 50 51 48 33 30 30 20 16 13 13 14 15 15 15 20 20 19 20 19 17 17 17 19 20 20 18 15 12 14 14 15 14 16 18 18 27 32 34 35 37
50 49 49 51 51 50 48 39 29 32 28 19 13 11 12 13 13 14 15 15 17 16 15 14 14 15 23 24 23 22 22 21 14 15 15 15 11 10 22 30 31 32 33 35 36
49 47 46 49 49 49 41 32 31 28 26 17 10 10 10 12 11 13 15 16 16 16 17 16 16 18 22 26 27 26 23 23 24 23 22 20 19 19 18 26 30 30 31 33 35
44 44 44 50 50 45 37 32 29 20 17 18 15 15 13 11 11 13 13 13 12 16 20 21 20 21 21 21 21 25 23 25 25 19 16 16 17 17 32 34 31 30 31 33 35
45 40 46 50 49 41 32 31 26 21 22 20 18 15 10 9 8 9 8 10 9 11 13 12 18 17 18 18 19 20 22 26 33 31 22 19 17 28 36 38 39 39 38 37 34
44 34 46 49 37 38 33 27 29 22 23 21 21 20 17 15 15 13 13 14 15 16 15 18 21 18 14 14 13 13 15 16 23 23 27 28 25 29 36 36 36 37 39 40 36
39 38 45 45 32 33 28 28 25 22 22 21 20 20 20 17 16 17 17 18 18 19 27 27 21 16 12 13 13 12 12 13 16 20 19 19 20 28 33 32 33 33 37 39 39
38 32 37 40 38 32 30 27 26 25 23 21 22 23 23 20 20 19 19 19 21 20 29 23 21 20 17 14 14 15 14 15 17 19 19 21 25 23 32 29 29 31 34 35 37
40 34 34 31 33 31 29 28 23 26 25 23 21 20 20 21 20 19 19 18 18 23 21 22 19 18 16 13 14 13 12 13 16 17 16 17 14 24 27 28 30 28 28 28 28
35 37 32 31 30 30 30 30 23 22 24 21 21 19 21 24 22 20 19 19 17 17 17 17 19 16 15 13 9 10 11 9 10 11 12 14 16 25 25 25 16 18 24 25 27
42 35 32 30 31 30 27 24 22 21 22 21 19 19 18 19 19 19 19 18 17 16 17 19 20 16 14 11 12 14 11 11 16 16 18 18 20 18 14 14 17 29 27 26 26
Lifted_Index
5 5 5 6 6 6 6 7 7 7 6 6 7 7 7 7 6 6 6 6 6 6 6 5 5 5 5 4 4 4 4 4 3 2 1 1 2 3 4 4 3 1 -2 -5 -5
5 5 5 5 6 6 6 6 7 7 6 7 7 7 7 7 7 6 6 6 6 6 6 6 6 6 5 5 4 4 4 4 3 2 2 2 3 4 4 4 3 1 -2 -4 -5
4 4 5 5 5 6 6 6 6 7 7 7 7 7 7 7 6 6 6 6 6 7 7 7 6 6 6 5 5 4 4 3 3 3 3 3 4 4 4 4 4 2 -1 -3 -4
4 4 4 5 5 6 6 6 6 7 7 7 7 7 7 7 6 6 7 7 7 7 7 7 6 6 6 5 4 4 4 3 3 3 4 4 4 4 4 4 4 3 1 -1 -2
4 4 4 5 5 6 6 6 6 6 7 7 8 8 7 6 6 7 7 8 8 8 8 7 7 6 6 5 4 4 4 3 4 4 4 4 4 4 4 4 4 3 3 2 1
4 4 4 5 5 5 5 5 6 6 7 8 8 8 7 6 6 7 8 8 8 8 8 7 7 7 6 5 5 4 4 4 4 4 4 4 4 5 4 4 4 4 4 4 4
3 4 4 4 5 5 5 5 6 6 7 8 9 9 7 6 7 8 8 8 8 8 8 8 8 7 7 6 5 5 4 4 4 4 4 4 5 5 4 4 4 4 4 4 4
3 4 4 4 5 5 5 5 6 6 7 8 9 8 7 7 8 8 8 8 8 8 8 8 8 7 6 6 5 5 4 4 4 4 4 4 5 5 4 4 5 5 5 5 5
3 3 4 4 4 5 5 5 6 7 8 8 8 7 7 7 8 8 8 8 7 7 7 8 7 7 6 5 5 4 4 4 4 3 3 4 4 4 4 4 5 5 5 5 5
3 3 3 4 4 4 5 5 5 6 7 7 7 6 6 7 8 8 8 7 7 6 6 7 7 6 5 5 4 3 3 3 3 3 3 3 4 4 4 4 4 5 5 4 4
3 3 3 3 4 4 4 4 4 5 5 5 6 6 6 7 7 7 7 7 7 6 6 6 6 5 5 4 4 4 3 3 3 3 3 3 4 4 4 4 4 4 4 4 4
3 3 3 3 4 4 4 4 5 5 5 5 5 6 6 7 7 7 7 7 6 6 6 6 5 5 4 4 4 4 4 4 3 3 3 3 4 4 4 4 4 4 4 4 4
4 4 4 4 4 4 4 5 7 6 5 5 5 6 7 7 6 7 7 7 6 6 6 6 6 5 5 5 5 4 4 4 4 3 3 3 4 5 4 4 3 3 4 4 4
4 4 5 6 5 5 5 7 9 7 4 4 6 8 8 7 7 7 8 7 7 6 6 6 5 5 5 5 5 5 4 4 4 4 3 3 3 4 4 4 3 3 3 4 4
5 5 7 8 7 6 8 9 9 6 3 4 7 9 9 8 8 8 8 7 6 6 6 5 5 5 5 5 5 5 5 5 5 4 3 2 3 3 4 4 4 3 2 4 5
6 7 9 10 9 9 10 9 7 4 3 5 8 9 9 8 8 8 7 6 6 5 5 5 5 5 5 6 6 6 6 5 4 3 2 2 3 3 3 4 4 3 2 3 5
9 11 12 11 11 11 10 8 5 3 4 5 7 8 8 8 7 7 7 6 5 5 5 4 4 4 5 5 5 6 5 3 2 2 2 2 3 3 3 3 3 3 2 3 3
13 13 13 13 12 12 10 6 3 3 5 6 7 7 7 7 7 7 6 5 5 5 4 4 4 4 4 5 5 5 4 3 1 1 2 3 4 4 3 2 2 2 2 2 2
14 14 13 13 13 12 9 5 4 5 6 7 7 6 5 6 6 6 6 5 5 5 5 5 4 4 5 5 5 5 4 3 2 1 2 3 4 3 2 1 1 1 1 1 1
12 12 12 12 12 10 7 5 5 7 7 7 6 5 5 6 6 6 6 6 6 6 6 6 5 6 6 6 5 4 4 3 2 1 1 1 2 2 1 1 0 0 1 1 2
11 11 11 10 10 9 6 6 7 8 8 7 6 6 6 6 6 6 6 6 7 7 7 7 6 6 7 7 6 5 4 3 2 1 0 0 0 1 1 1 0 1 2 2 2
10 9 10 9 8 8 7 7 8 9 9 8 7 7 7 6 6 5 6 6 7 7 7 7 7 6 7 7 6 5 4 3 2 1 0 -0 0 0 1 1 1 2 3 3 3
9 9 10 9 8 8 8 8 9 9 9 8 8 7 7 6 6 6 6 6 6 6 7 7 6 6 6 6 6 5 4 3 2 1 -0 -0 -0 0 0 1 2 2 3 3 3
10 10 10 10 9 8 8 9 8 8 8 8 7 6 6 6 6 6 6 6 6 6 6 6 6 5 5 5 5 4 4 3 1 -0 -0 -0 -0 -0 0 1 1 2 2 2 2
10 10 10 10 9 9 8 8 8 7 7 7 7 6 6 6 6 6 6 6 6 6 6 6 5 5 4 4 4 3 3 2 0 -0 -0 -1 -1 -0 -0 0 1 1 1 1 1
10 9 9 9 9 8 8 7 7 6 6 6 6 6 6 6 6 6 6 6 7 6 6 5 4 4 4 3 3 3 2 1 0 -0 -1 -1 -1 -1 -0 -0 0 0 0 0 -0
9 9 9 8 8 7 7 6 6 6 6 6 6 6 6 6 6 7 7 7 7 6 6 5 4 3 3 3 2 3 2 1 -0 -1 -1 -1 -1 -1 -1 -0 -0 -0 -1 -1 -1